Sparta, WI

1:13 AM CST on January 20, 2017 (GMT -0600)
Sparta-Fort McCoy

Weather History for KCMY - March, 2014

Change the Weather History Date:

Sunday, March 2, 2014

  Actual Average Record
Temperature  
Mean Temperature -7 °F -  
Max Temperature 4 °F 38 °F 61 °F (1964)
Min Temperature -18 °F 17 °F -18 °F (2014)
Degree Days  
Heating Degree Days 72    
Moisture  
Dew Point -21 °F    
Average Humidity 46    
Maximum Humidity 75    
Minimum Humidity 29    
Precipitation  
Precipitation 0.00 in - - ()
Sea Level Pressure  
Sea Level Pressure 30.47 in    
Wind  
Wind Speed 6 mph (NW)    
Max Wind Speed 12 mph    
Max Gust Speed 18 mph    
Visibility 10 miles    
Events      
Averages and records for this station are not official NWS values.
T = Trace of Precipitation, MM = Missing Value Source: NWS Daily Summary

Daily Weather History Graph

Daily Weather History Graph

Search for Another Location

Airport or City:

Trip Planner

Search our weather history database for the weather conditions in past years. The results will help you decide how hot, cold, wet, or windy it might be!

Date:

Astronomy

Mar. 02, 2014 Rise Set
Actual Time 6:38 AM CST 5:52 PM CST
Civil Twilight 6:09 AM CST 6:21 PM CST
Nautical Twilight 5:35 AM CST 6:55 PM CST
Astronomical Twilight 5:02 AM CST 7:28 PM CST
Moon 7:05 AM CST (3/2) 7:54 PM CST (3/2)
Length of Visible Light 12h 12m
Length of Day
11h 14m
Waxing Crescent, 3% of the Moon is Illuminated
Mar 2
Waxing Crescent
Mar 8
First Quarter
Mar 16
Full
Mar 23
Last Quarter
Mar 30
New

Hourly Weather History & Observations

Time (CST) Temp. Windchill Dew Point Humidity Pressure Visibility Wind Dir Wind Speed Gust Speed Precip Events Conditions
12:15 AM -2.6 °F -14.6 °F -14.8 °F 56% 30.44 in 10.0 mi WNW 5.8 mph - N/A   Clear
12:35 AM -2.7 °F -13.1 °F -15.0 °F 56% 30.46 in 10.0 mi West 4.6 mph - N/A   Clear
12:55 AM -2.9 °F -17.7 °F -15.5 °F 55% 30.45 in 10.0 mi WNW 8.1 mph - N/A   Clear
1:15 AM -3.1 °F -15.2 °F -15.9 °F 54% 30.45 in 10.0 mi WNW 5.8 mph - N/A   Clear
1:35 AM -3.6 °F -18.6 °F -16.6 °F 54% 30.47 in 10.0 mi WNW 8.1 mph - N/A   Clear
1:55 AM -3.3 °F -15.4 °F -16.6 °F 53% 30.46 in 10.0 mi NW 5.8 mph - N/A   Clear
2:15 AM -3.1 °F -15.2 °F -16.8 °F 52% 30.46 in 10.0 mi NW 5.8 mph - N/A   Clear
2:35 AM -3.1 °F -15.2 °F -18.2 °F 49% 30.44 in 10.0 mi NNW 5.8 mph - N/A   Clear
2:55 AM -3.1 °F -16.7 °F -18.9 °F 47% 30.44 in 10.0 mi NW 6.9 mph - N/A   Clear
3:15 AM -3.6 °F -12.0 °F -18.6 °F 49% 30.45 in 10.0 mi NW 3.5 mph - N/A   Clear
3:35 AM -4.4 °F -16.7 °F -19.7 °F 48% 30.44 in 10.0 mi NW 5.8 mph - N/A   Clear
3:55 AM -5.3 °F -19.3 °F -19.8 °F 50% 30.46 in 10.0 mi NW 6.9 mph - N/A   Clear
4:15 AM -5.6 °F -19.7 °F -20.2 °F 49% 30.45 in 10.0 mi NW 6.9 mph - N/A   Clear
4:35 AM -6.3 °F -20.6 °F -20.4 °F 51% 30.46 in 10.0 mi NW 6.9 mph - N/A   Clear
4:55 AM -6.9 °F -22.5 °F -20.7 °F 51% 30.46 in 10.0 mi NW 8.1 mph - N/A   Clear
5:15 AM -6.7 °F -22.3 °F -21.5 °F 49% 30.47 in 10.0 mi NW 8.1 mph - N/A   Clear
5:35 AM -6.9 °F -21.2 °F -22.4 °F 47% 30.47 in 10.0 mi NNW 6.9 mph - N/A   Clear
5:55 AM -7.4 °F -21.9 °F -22.2 °F 49% 30.48 in 10.0 mi NW 6.9 mph - N/A   Clear
6:15 AM -8.5 °F -19.8 °F -22.4 °F 51% 30.47 in 10.0 mi NW 4.6 mph - N/A   Clear
6:35 AM -8.1 °F -17.1 °F -22.4 °F 50% 30.47 in 10.0 mi NNW 3.5 mph - N/A   Clear
6:55 AM -8.5 °F -23.2 °F -22.9 °F 49% 30.48 in 10.0 mi NNW 6.9 mph - N/A   Clear
7:15 AM -8.5 °F -21.6 °F -22.0 °F 52% 30.49 in 10.0 mi NW 5.8 mph - N/A   Clear
7:35 AM -7.6 °F -23.4 °F -22.9 °F 47% 30.49 in 10.0 mi NNW 8.1 mph - N/A   Clear
7:55 AM -6.9 °F -22.5 °F -22.9 °F 46% 30.50 in 10.0 mi NW 8.1 mph - N/A   Clear
8:15 AM -6.3 °F -23.1 °F -23.8 °F 43% 30.50 in 10.0 mi NNW 9.2 mph - N/A   Clear
8:35 AM -6.2 °F -23.9 °F -23.3 °F 44% 30.50 in 10.0 mi NW 10.4 mph - N/A   Clear
8:55 AM -5.3 °F -22.8 °F -23.4 °F 41% 30.50 in 10.0 mi NW 10.4 mph - N/A   Clear
9:15 AM -4.4 °F -18.2 °F -23.8 °F 39% 30.50 in 10.0 mi NW 6.9 mph - N/A   Clear
9:35 AM -3.6 °F -17.3 °F -23.3 °F 39% 30.50 in 10.0 mi NW 6.9 mph - N/A   Clear
9:55 AM -3.1 °F -15.2 °F -24.5 °F 35% 30.50 in 10.0 mi WNW 5.8 mph - N/A   Clear
10:15 AM -2.6 °F -19.4 °F -24.0 °F 35% 30.50 in 10.0 mi NNW 10.4 mph - N/A   Clear
10:35 AM -2.2 °F -18.0 °F -24.5 °F 34% 30.50 in 10.0 mi NW 9.2 mph - N/A   Clear
10:55 AM -1.3 °F -15.7 °F -24.9 °F 32% 30.50 in 10.0 mi North 8.1 mph - N/A   Clear
11:15 AM -1.3 °F -11.4 °F -24.2 °F 33% 30.50 in 10.0 mi West 4.6 mph - N/A   Clear
11:35 AM -0.6 °F -16.9 °F -24.0 °F 32% 30.51 in 10.0 mi West 10.4 mph - N/A   Clear
11:55 AM 0.3 °F -14.8 °F -22.7 °F 33% 30.51 in 10.0 mi NW 9.2 mph - N/A   Clear
12:15 PM 0.7 °F -16.2 °F -22.4 °F 33% 30.50 in 10.0 mi NW 11.5 mph 18.4 mph N/A   Clear
12:35 PM 1.9 °F -13.8 °F -21.3 °F 33% 30.49 in 10.0 mi NW 10.4 mph - N/A   Clear
12:55 PM 1.9 °F -12.9 °F -22.5 °F 31% 30.49 in 10.0 mi WNW 9.2 mph - N/A   Clear
1:15 PM 2.7 °F -12.9 °F -21.5 °F 32% 30.47 in 10.0 mi WNW 10.4 mph - N/A   Clear
1:35 PM 3.2 °F -10.3 °F -22.2 °F 30% 30.45 in 10.0 mi NW 8.1 mph - N/A   Clear
1:50 PM 3.2 °F -13.1 °F -21.6 °F 31% 30.45 in 10.0 mi WNW 11.5 mph - N/A   Clear
2:15 PM 3.7 °F -12.4 °F -22.2 °F 29% 30.45 in 10.0 mi WNW 11.5 mph 17.3 mph N/A   Clear
2:35 PM 4.1 °F -12.0 °F -21.1 °F 30% 30.45 in 10.0 mi NW 11.5 mph 17.3 mph N/A   Clear
2:55 PM 4.1 °F -9.2 °F -20.6 °F 31% 30.45 in 10.0 mi WNW 8.1 mph - N/A   Clear
3:15 PM 4.5 °F -9.8 °F -21.8 °F 29% 30.44 in 10.0 mi NNW 9.2 mph - N/A   Clear
3:35 PM 4.1 °F -6.7 °F -22.2 °F 29% 30.44 in 10.0 mi WNW 5.8 mph 16.1 mph N/A   Clear
3:50 PM 4.3 °F -10.9 °F -22.0 °F 29% 30.44 in 10.0 mi NW 10.4 mph - N/A   Clear
4:15 PM 4.5 °F -9.8 °F -21.1 °F 30% 30.45 in 10.0 mi NW 9.2 mph - N/A   Clear
4:35 PM 4.1 °F -10.2 °F -21.5 °F 30% 30.45 in 10.0 mi NW 9.2 mph - N/A   Clear
4:55 PM 4.1 °F -8.0 °F -21.1 °F 30% 30.45 in 10.0 mi West 6.9 mph - N/A   Clear
5:10 PM 4.1 °F -6.7 °F -20.7 °F 31% 30.45 in 10.0 mi WNW 5.8 mph - N/A   Clear
5:35 PM 3.0 °F -8.0 °F -21.1 °F 32% 30.45 in 10.0 mi West 5.8 mph - N/A   Clear
5:55 PM 0.7 °F -7.1 °F -21.3 °F 35% 30.44 in 10.0 mi West 3.5 mph - N/A   Clear
6:15 PM -0.8 °F -8.7 °F -21.5 °F 37% 30.45 in 10.0 mi West 3.5 mph - N/A   Clear
6:35 PM -2.4 °F - -21.1 °F 41% 30.45 in 10.0 mi Calm Calm - N/A   Clear
6:55 PM -2.9 °F - -20.6 °F 43% 30.46 in 10.0 mi Calm Calm - N/A   Clear
7:15 PM -4.9 °F - -20.7 °F 47% 30.46 in 10.0 mi Calm Calm - N/A   Clear
7:35 PM -7.4 °F -18.6 °F -21.5 °F 51% 30.46 in 10.0 mi West 4.6 mph - N/A   Clear
7:55 PM -8.1 °F -17.1 °F -19.8 °F 57% 30.45 in 10.0 mi West 3.5 mph - N/A   Clear
8:15 PM -9.8 °F - -22.0 °F 55% 30.45 in 10.0 mi Calm Calm - N/A   Clear
8:35 PM -11.6 °F -21.0 °F -21.5 °F 62% 30.46 in 10.0 mi West 3.5 mph - N/A   Clear
8:55 PM -14.3 °F - -20.9 °F 72% 30.46 in 10.0 mi Calm Calm - N/A   Clear
9:15 PM -12.1 °F - -20.6 °F 66% 30.47 in 10.0 mi Calm Calm - N/A   Clear
9:35 PM -14.1 °F - -21.6 °F 69% 30.48 in 10.0 mi Calm Calm - N/A   Clear
9:55 PM -15.5 °F - -21.3 °F 75% 30.49 in 10.0 mi Calm Calm - N/A   Clear
10:15 PM -15.5 °F - -23.3 °F 68% 30.49 in 10.0 mi Calm Calm - N/A   Clear
10:35 PM -17.5 °F - -24.3 °F 71% 30.49 in 10.0 mi Calm Calm - N/A   Clear
10:55 PM -17.3 °F - -23.8 °F 72% 30.49 in 10.0 mi Calm Calm - N/A   Clear
11:15 PM -17.9 °F - -24.7 °F 71% 30.50 in 10.0 mi Calm Calm - N/A   Clear
11:35 PM -18.2 °F - -25.2 °F 70% 30.50 in 10.0 mi Calm Calm - N/A   Clear
11:50 PM -18.6 °F - -25.4 °F 71% 30.51 in 10.0 mi Calm Calm - N/A   Clear